VTSC

Details ICAO VTSC (NAW)
Name Narathiwat
Region Thailand
Timezone Asia/Bangkok (UTC+7.0)
Plans Departing 6
Arriving 10
Stats Elevation 18 ft / 5 m (AMSL)
Location 6.519922° 101.743402°
Runways 1
Magnetic Variation 0.162° W
Sunrise 2018-05-27 22:57:50 UTC / 2018-05-28 05:57:50 Local
Sunset 2018-05-28 11:25:35 UTC / 2018-05-28 18:25:35 Local
Advertisement - Login to hide

Runways

ID Width Length Bearing (true) Bearing (mag) Surface Threshold Offset Overrun Length
02 148 ft / 45 m 6,605 ft / 2,013 m 23.31° 23.47° Asphalt 0 ft / 0 m 197 ft / 60 m
20 148 ft / 45 m 6,605 ft / 2,013 m 203.31° 203.47° Asphalt 0 ft / 0 m 197 ft / 60 m

Approach Navaids

Runway Type Ident Frequency Range Bearing (true) Bearing (mag) Slope Elevation
02 Localiser INTW 110.10 MHz 18 nm / 33 km 23.30° 23.47° - 18 ft / 5 m (AMSL)
02 Glidescope INTW 110.10 MHz 10 nm / 19 km 23.31° 23.47° 3.00° 18 ft / 5 m (AMSL)
02 DME INTW 110.10 MHz 18 nm / 33 km - - - 18 ft / 5 m (AMSL)

Map

Weather


0- 5 10 15 20 25 30 35+ Temperature / ° C

Clouds and Precipitation
Forecast for 2018-05-27 18:00 UTC. Updated 5 hours ago

Ground ~20,000 ft ~40,000 ft Winds

METAR

Not found

TAF

TAF VTSC 271700Z 2718/2818 21003KT 9999 FEW020 SCT100 BECMG 2803/2805 07010KT TEMPO 2806/2812 VRB10G20KT 6000 -TSRA FEW016CB SCT018 BKN100 BECMG 2813/2815 20004KT

Frequencies

Tower 122.70 MHz TWR
Approach 125.55 MHz APP
Warning: Do not use this data for real-world aviation or navigation. No guarantee of current accuracy is given.